Time,TemperatureF,DewpointF,PressureIn,WindDirection,WindDirectionDegrees,WindSpeedMPH,WindSpeedGustMPH,Humidity,HourlyPrecipIn,Conditions,Clouds,dailyrainin,SoftwareType,DateUTC
2013-07-24 00:01:00,77.5,72.3,29.74,SSW,210,0.0,0.0,84,0.00,CLR,,0.00,WeatherDisplay:10.37,2013-07-24 04:01:00,
2013-07-24 00:06:00,77.6,72.4,29.74,SSW,210,0.0,0.0,84,0.00,CLR,,0.00,WeatherDisplay:10.37,2013-07-24 04:06:00,
2013-07-24 00:11:00,77.6,72.4,29.74,South,190,0.0,0.0,84,0.00,CLR,,0.00,WeatherDisplay:10.37,2013-07-24 04:11:00,
2013-07-24 00:16:00,77.7,72.5,29.74,SSW,196,0.0,0.0,84,0.00,CLR,,0.00,WeatherDisplay:10.37,2013-07-24 04:16:00,
2013-07-24 00:21:00,77.7,72.5,29.74,SSW,196,0.0,0.0,84,0.00,CLR,,0.00,WeatherDisplay:10.37,2013-07-24 04:21:00,
2013-07-24 00:26:00,77.7,72.5,29.74,SSW,198,0.0,0.0,84,0.00,CLR,,0.00,WeatherDisplay:10.37,2013-07-24 04:26:00,
2013-07-24 00:31:00,77.7,72.5,29.74,SSW,204,0.0,0.0,84,0.00,CLR,,0.00,WeatherDisplay:10.37,2013-07-24 04:31:00,
2013-07-24 00:36:00,77.7,72.5,29.73,SW,231,0.0,0.0,84,0.00,CLR,,0.00,WeatherDisplay:10.37,2013-07-24 04:36:00,
2013-07-24 00:41:00,77.7,72.5,29.74,SW,228,0.0,0.0,84,0.00,CLR,,0.00,WeatherDisplay:10.37,2013-07-24 04:41:00,
2013-07-24 00:46:00,77.6,72.4,29.73,SW,228,0.0,0.0,84,0.00,CLR,,0.00,WeatherDisplay:10.37,2013-07-24 04:46:00,
2013-07-24 00:51:00,77.5,72.3,29.73,SSW,204,0.0,0.0,84,0.00,CLR,,0.00,WeatherDisplay:10.37,2013-07-24 04:51:00,
2013-07-24 00:56:00,77.4,72.2,29.74,SSW,204,0.0,0.0,84,0.00,CLR,,0.00,WeatherDisplay:10.37,2013-07-24 04:56:00,
2013-07-24 01:01:00,77.3,72.4,29.73,South,186,0.0,0.0,85,0.00,CLR,,0.00,WeatherDisplay:10.37,2013-07-24 05:01:00,
2013-07-24 01:06:00,77.2,72.3,29.73,South,186,0.0,0.0,85,0.00,CLR,,0.00,WeatherDisplay:10.37,2013-07-24 05:06:00,
2013-07-24 01:11:00,77.1,72.2,29.74,South,186,0.0,0.0,85,0.00,CLR,,0.00,WeatherDisplay:10.37,2013-07-24 05:11:00,
2013-07-24 01:16:00,77.0,72.5,29.74,South,186,0.0,0.0,86,0.00,CLR,,0.00,WeatherDisplay:10.37,2013-07-24 05:16:00,
2013-07-24 01:20:00,76.9,72.4,29.74,SSW,207,1.1,1.1,86,0.00,CLR,,0.00,WeatherDisplay:10.37,2013-07-24 05:20:00,
2013-07-24 01:25:00,76.9,72.4,29.73,SSW,211,0.0,0.0,86,0.00,CLR,,0.00,WeatherDisplay:10.37,2013-07-24 05:25:00,
2013-07-24 01:30:00,76.8,72.3,29.73,SSW,210,0.0,0.0,86,0.00,CLR,,0.00,WeatherDisplay:10.37,2013-07-24 05:30:00,
2013-07-24 01:35:00,76.8,72.3,29.73,SSW,197,0.0,0.0,86,0.00,CLR,,0.00,WeatherDisplay:10.37,2013-07-24 05:35:00,
2013-07-24 01:40:00,76.6,72.4,29.73,SSW,197,0.0,0.0,87,0.00,CLR,,0.00,WeatherDisplay:10.37,2013-07-24 05:40:00,
2013-07-24 01:45:00,76.5,72.3,29.73,SSW,193,0.0,0.0,87,0.00,CLR,,0.00,WeatherDisplay:10.37,2013-07-24 05:45:00,
2013-07-24 01:50:00,76.4,72.2,29.73,SSW,193,0.0,0.0,87,0.00,CLR,,0.00,WeatherDisplay:10.37,2013-07-24 05:50:00,
2013-07-24 01:55:00,76.4,72.2,29.73,SW,236,1.1,1.1,87,0.00,CLR,,0.00,WeatherDisplay:10.37,2013-07-24 05:55:00,
2013-07-24 02:00:00,76.4,72.2,29.73,SSE,156,0.0,0.0,87,0.00,CLR,,0.00,WeatherDisplay:10.37,2013-07-24 06:00:00,
2013-07-24 02:05:00,76.4,72.2,29.73,SW,221,0.0,0.0,87,0.00,CLR,,0.00,WeatherDisplay:10.37,2013-07-24 06:05:00,
2013-07-24 02:10:00,76.3,72.1,29.73,SSE,153,0.0,0.0,87,0.00,CLR,,0.00,WeatherDisplay:10.37,2013-07-24 06:10:00,
2013-07-24 02:15:00,76.3,72.1,29.73,SSW,201,2.3,2.3,87,0.00,CLR,,0.00,WeatherDisplay:10.37,2013-07-24 06:15:00,
2013-07-24 02:16:00,76.3,72.1,29.73,SW,229,1.1,0.0,87,0.00,CLR,,0.00,WeatherDisplay:10.37,2013-07-24 06:16:00,
2013-07-24 02:21:00,76.3,72.1,29.72,SSW,198,0.0,0.0,87,0.00,CLR,,0.00,WeatherDisplay:10.37,2013-07-24 06:21:00,
2013-07-24 02:26:00,76.3,72.1,29.72,SSW,199,0.0,0.0,87,0.00,CLR,,0.00,WeatherDisplay:10.37,2013-07-24 06:26:00,
2013-07-24 02:31:00,76.3,72.1,29.72,SW,226,0.0,0.0,87,0.00,CLR,,0.00,WeatherDisplay:10.37,2013-07-24 06:31:00,
2013-07-24 02:36:00,76.2,72.0,29.72,SW,226,1.1,1.1,87,0.00,CLR,,0.00,WeatherDisplay:10.37,2013-07-24 06:36:00,
2013-07-24 02:41:00,76.1,71.9,29.72,SW,226,0.0,0.0,87,0.00,CLR,,0.00,WeatherDisplay:10.37,2013-07-24 06:41:00,
2013-07-24 02:46:00,76.1,71.9,29.72,SW,226,0.0,0.0,87,0.00,CLR,,0.00,WeatherDisplay:10.37,2013-07-24 06:46:00,
2013-07-24 02:51:00,75.9,72.1,29.72,SW,215,1.1,0.0,88,0.00,CLR,,0.00,WeatherDisplay:10.37,2013-07-24 06:51:00,
2013-07-24 02:56:00,75.8,72.0,29.71,SW,215,0.0,0.0,88,0.00,CLR,,0.00,WeatherDisplay:10.37,2013-07-24 06:56:00,
2013-07-24 03:01:00,75.6,71.8,29.71,SW,216,0.0,0.0,88,0.00,CLR,,0.00,WeatherDisplay:10.37,2013-07-24 07:01:00,
2013-07-24 03:06:00,75.4,71.6,29.71,SW,215,0.0,0.0,88,0.00,CLR,,0.00,WeatherDisplay:10.37,2013-07-24 07:06:00,
2013-07-24 03:11:00,75.2,71.7,29.71,SW,215,0.0,0.0,89,0.00,CLR,,0.00,WeatherDisplay:10.37,2013-07-24 07:11:00,
2013-07-24 03:16:00,75.0,71.5,29.71,SW,215,0.0,0.0,89,0.00,CLR,,0.00,WeatherDisplay:10.37,2013-07-24 07:16:00,
2013-07-24 03:21:00,74.8,71.3,29.71,SW,216,0.0,0.0,89,0.00,CLR,,0.00,WeatherDisplay:10.37,2013-07-24 07:21:00,
2013-07-24 03:26:00,74.6,71.5,29.71,SW,215,0.0,0.0,90,0.00,CLR,,0.00,WeatherDisplay:10.37,2013-07-24 07:26:00,
2013-07-24 03:31:00,74.4,71.3,29.70,SW,215,0.0,0.0,90,0.00,CLR,,0.00,WeatherDisplay:10.37,2013-07-24 07:31:00,
2013-07-24 03:36:00,74.3,71.5,29.70,SW,216,0.0,0.0,91,0.00,CLR,,0.00,WeatherDisplay:10.37,2013-07-24 07:36:00,
2013-07-24 03:41:00,74.2,71.4,29.70,SW,216,0.0,0.0,91,0.00,CLR,,0.00,WeatherDisplay:10.37,2013-07-24 07:41:00,
2013-07-24 03:46:00,74.1,71.3,29.70,SW,215,0.0,0.0,91,0.00,CLR,,0.00,WeatherDisplay:10.37,2013-07-24 07:46:00,
2013-07-24 03:51:00,74.0,71.2,29.70,SW,215,0.0,0.0,91,0.00,CLR,,0.00,WeatherDisplay:10.37,2013-07-24 07:51:00,
2013-07-24 03:56:00,73.9,71.1,29.70,SSW,209,0.0,0.0,91,0.00,CLR,,0.00,WeatherDisplay:10.37,2013-07-24 07:56:00,
2013-07-24 04:01:00,73.9,71.1,29.70,SW,222,0.0,0.0,91,0.00,CLR,,0.00,WeatherDisplay:10.37,2013-07-24 08:01:00,
2013-07-24 04:06:00,73.9,71.1,29.70,South,190,0.0,0.0,91,0.00,CLR,,0.00,WeatherDisplay:10.37,2013-07-24 08:06:00,
2013-07-24 04:11:00,74.0,70.9,29.70,South,190,0.0,0.0,90,0.00,CLR,,0.00,WeatherDisplay:10.37,2013-07-24 08:11:00,
2013-07-24 04:16:00,74.0,70.9,29.70,SW,222,0.0,0.0,90,0.00,CLR,,0.00,WeatherDisplay:10.37,2013-07-24 08:16:00,
2013-07-24 04:21:00,74.0,70.9,29.70,SW,222,0.0,0.0,90,0.00,CLR,,0.00,WeatherDisplay:10.37,2013-07-24 08:21:00,
2013-07-24 04:26:00,74.0,70.9,29.70,SW,222,1.1,0.0,90,0.00,CLR,,0.00,WeatherDisplay:10.37,2013-07-24 08:26:00,
2013-07-24 04:31:00,73.9,70.8,29.70,SW,233,0.0,0.1,90,0.00,CLR,,0.00,WeatherDisplay:10.37,2013-07-24 08:31:00,
2013-07-24 04:36:00,73.9,70.8,29.70,SW,228,0.0,0.0,90,0.00,CLR,,0.00,WeatherDisplay:10.37,2013-07-24 08:36:00,
2013-07-24 04:41:00,73.9,70.8,29.70,SW,228,0.0,0.0,90,0.00,CLR,,0.00,WeatherDisplay:10.37,2013-07-24 08:41:00,
2013-07-24 04:46:00,73.9,70.8,29.70,SW,228,0.0,0.0,90,0.00,CLR,,0.00,WeatherDisplay:10.37,2013-07-24 08:46:00,
2013-07-24 04:51:00,73.7,70.6,29.69,SW,228,0.0,0.0,90,0.00,CLR,,0.00,WeatherDisplay:10.37,2013-07-24 08:51:00,
2013-07-24 04:56:00,73.6,70.5,29.69,SW,228,0.0,0.0,90,0.00,CLR,,0.00,WeatherDisplay:10.37,2013-07-24 08:56:00,
2013-07-24 05:02:00,73.4,70.6,29.70,SW,228,0.0,0.0,91,0.00,CLR,,0.00,WeatherDisplay:10.37,2013-07-24 09:02:00,
2013-07-24 05:07:00,73.3,70.5,29.69,SW,228,0.0,0.0,91,0.00,CLR,,0.00,WeatherDisplay:10.37,2013-07-24 09:07:00,
2013-07-24 05:12:00,73.1,70.6,29.69,SW,228,0.0,0.0,92,0.00,CLR,,0.00,WeatherDisplay:10.37,2013-07-24 09:12:00,
2013-07-24 05:17:00,72.9,70.4,29.70,SW,228,0.0,0.0,92,0.00,CLR,,0.00,WeatherDisplay:10.37,2013-07-24 09:17:00,
2013-07-24 05:22:00,72.9,70.4,29.70,SW,228,0.0,0.0,92,0.00,CLR,,0.00,WeatherDisplay:10.37,2013-07-24 09:22:00,
2013-07-24 05:27:00,72.7,70.6,29.70,SW,228,0.0,0.0,93,0.00,CLR,,0.00,WeatherDisplay:10.37,2013-07-24 09:27:00,
2013-07-24 05:32:00,72.7,70.6,29.70,SSW,196,0.0,0.0,93,0.00,CLR,,0.00,WeatherDisplay:10.37,2013-07-24 09:32:00,
2013-07-24 05:37:00,72.6,70.5,29.70,SSW,196,0.0,0.0,93,0.00,CLR,,0.00,WeatherDisplay:10.37,2013-07-24 09:37:00,
2013-07-24 05:42:00,72.5,70.4,29.70,SSW,195,0.0,0.0,93,0.00,CLR,,0.00,WeatherDisplay:10.37,2013-07-24 09:42:00,
2013-07-24 05:47:00,72.4,70.3,29.70,SSW,195,0.0,0.0,93,0.00,CLR,,0.00,WeatherDisplay:10.37,2013-07-24 09:47:00,
2013-07-24 05:52:00,72.3,70.2,29.70,SSW,195,0.0,0.0,93,0.00,CLR,,0.00,WeatherDisplay:10.37,2013-07-24 09:52:00,
2013-07-24 05:57:00,72.2,70.1,29.71,SSW,195,0.0,0.0,93,0.00,CLR,,0.00,WeatherDisplay:10.37,2013-07-24 09:57:00,
2013-07-24 06:02:00,72.2,70.1,29.71,SSW,196,0.0,0.0,93,0.00,CLR,,0.00,WeatherDisplay:10.37,2013-07-24 10:02:00,
2013-07-24 06:07:00,72.1,70.0,29.71,SSW,203,0.0,0.0,93,0.00,CLR,,0.00,WeatherDisplay:10.37,2013-07-24 10:07:00,
2013-07-24 06:12:00,72.0,69.9,29.71,SSW,203,0.0,0.0,93,0.00,CLR,,0.00,WeatherDisplay:10.37,2013-07-24 10:12:00,
2013-07-24 06:17:00,72.1,70.0,29.71,SSW,203,0.0,0.0,93,0.00,CLR,,0.00,WeatherDisplay:10.37,2013-07-24 10:17:00,
2013-07-24 06:22:00,72.0,69.9,29.71,SSW,203,0.0,0.0,93,0.00,CLR,,0.00,WeatherDisplay:10.37,2013-07-24 10:22:00,
2013-07-24 06:27:00,72.0,69.9,29.71,SSW,203,0.0,0.0,93,0.00,CLR,,0.00,WeatherDisplay:10.37,2013-07-24 10:27:00,
2013-07-24 06:32:00,71.9,69.8,29.72,SSW,203,0.0,0.0,93,0.00,CLR,,0.00,WeatherDisplay:10.37,2013-07-24 10:32:00,
2013-07-24 06:37:00,71.8,69.7,29.72,SSW,203,0.0,0.0,93,0.00,CLR,,0.00,WeatherDisplay:10.37,2013-07-24 10:37:00,
2013-07-24 06:42:00,71.8,69.7,29.72,SSW,203,0.0,0.0,93,0.00,CLR,,0.00,WeatherDisplay:10.37,2013-07-24 10:42:00,
2013-07-24 06:47:00,71.8,70.0,29.72,SSW,203,0.0,0.0,94,0.00,CLR,,0.00,WeatherDisplay:10.37,2013-07-24 10:47:00,
2013-07-24 06:52:00,71.8,70.0,29.72,SSW,203,0.0,0.0,94,0.00,CLR,,0.00,WeatherDisplay:10.37,2013-07-24 10:52:00,
2013-07-24 06:57:00,71.8,70.0,29.73,SSW,203,0.0,0.0,94,0.00,CLR,,0.00,WeatherDisplay:10.37,2013-07-24 10:57:00,
2013-07-24 07:02:00,71.8,70.0,29.73,SSW,203,0.0,0.0,94,0.00,CLR,,0.00,WeatherDisplay:10.37,2013-07-24 11:02:00,
2013-07-24 07:07:00,71.9,70.1,29.73,SSW,203,0.0,0.0,94,0.00,CLR,,0.00,WeatherDisplay:10.37,2013-07-24 11:07:00,
2013-07-24 07:12:00,72.0,70.2,29.73,SSW,203,0.0,0.0,94,0.00,CLR,,0.00,WeatherDisplay:10.37,2013-07-24 11:12:00,
2013-07-24 07:17:00,72.2,70.1,29.73,SSW,203,0.0,0.0,93,0.00,CLR,,0.00,WeatherDisplay:10.37,2013-07-24 11:17:00,
2013-07-24 07:22:00,72.4,70.3,29.73,SSW,203,0.0,0.0,93,0.00,CLR,,0.00,WeatherDisplay:10.37,2013-07-24 11:22:00,
2013-07-24 07:27:00,72.6,70.5,29.73,SSW,203,0.0,0.0,93,0.00,CLR,,0.00,WeatherDisplay:10.37,2013-07-24 11:27:00,
2013-07-24 07:32:00,72.8,70.3,29.73,SSW,203,0.0,0.0,92,0.00,CLR,,0.00,WeatherDisplay:10.37,2013-07-24 11:32:00,
2013-07-24 07:37:00,73.1,70.6,29.74,SW,217,0.0,0.0,92,0.00,CLR,,0.00,WeatherDisplay:10.37,2013-07-24 11:37:00,
2013-07-24 07:42:00,73.5,70.7,29.73,SW,217,0.0,0.0,91,0.00,CLR,,0.00,WeatherDisplay:10.37,2013-07-24 11:42:00,
2013-07-24 07:47:00,73.8,70.7,29.74,SW,217,0.0,0.0,90,0.00,CLR,,0.00,WeatherDisplay:10.37,2013-07-24 11:47:00,
2013-07-24 07:52:00,74.1,71.0,29.74,SW,217,0.0,0.0,90,0.00,CLR,,0.00,WeatherDisplay:10.37,2013-07-24 11:52:00,
2013-07-24 07:57:00,74.4,70.9,29.74,SW,217,0.0,0.0,89,0.00,CLR,,0.00,WeatherDisplay:10.37,2013-07-24 11:57:00,
2013-07-24 08:02:00,74.9,71.4,29.74,SW,235,0.0,0.0,89,0.00,CLR,,0.00,WeatherDisplay:10.37,2013-07-24 12:02:00,
2013-07-24 08:07:00,75.5,71.4,29.74,WSW,245,1.1,1.1,87,0.00,CLR,,0.00,WeatherDisplay:10.37,2013-07-24 12:07:00,
2013-07-24 08:12:00,76.3,71.8,29.74,SW,217,1.1,1.1,86,0.00,CLR,,0.00,WeatherDisplay:10.37,2013-07-24 12:12:00,
2013-07-24 08:17:00,76.9,71.7,29.74,WSW,240,1.1,1.1,84,0.00,CLR,,0.00,WeatherDisplay:10.37,2013-07-24 12:17:00,
2013-07-24 08:22:00,77.4,71.8,29.74,SW,226,1.1,1.1,83,0.00,CLR,,0.00,WeatherDisplay:10.37,2013-07-24 12:22:00,
2013-07-24 08:27:00,77.9,72.0,29.74,WNW,288,0.0,0.0,82,0.00,CLR,,0.00,WeatherDisplay:10.37,2013-07-24 12:27:00,
2013-07-24 08:32:00,78.6,72.6,29.74,WNW,288,0.0,0.0,82,0.00,CLR,,0.00,WeatherDisplay:10.37,2013-07-24 12:32:00,
2013-07-24 08:37:00,79.2,72.9,29.75,SW,214,0.0,0.0,81,0.00,CLR,,0.00,WeatherDisplay:10.37,2013-07-24 12:37:00,
2013-07-24 08:42:00,80.1,73.0,29.75,SW,214,0.0,0.0,79,0.00,CLR,,0.00,WeatherDisplay:10.37,2013-07-24 12:42:00,
2013-07-24 08:47:00,80.4,72.9,29.75,NW,305,1.0,0.0,78,0.00,CLR,,0.00,WeatherDisplay:10.37,2013-07-24 12:47:00,
2013-07-24 08:52:00,80.7,73.2,29.75,SSW,199,0.0,0.0,78,0.00,CLR,,0.00,WeatherDisplay:10.37,2013-07-24 12:52:00,
2013-07-24 08:57:00,81.5,73.6,29.75,West,264,0.0,0.0,77,0.00,CLR,,0.00,WeatherDisplay:10.37,2013-07-24 12:57:00,
2013-07-24 09:02:00,82.0,73.7,29.76,West,266,0.0,0.0,76,0.00,CLR,,0.00,WeatherDisplay:10.37,2013-07-24 13:02:00,
2013-07-24 09:07:00,82.3,73.6,29.76,West,267,0.0,0.0,75,0.00,CLR,,0.00,WeatherDisplay:10.37,2013-07-24 13:07:00,
2013-07-24 09:12:00,82.7,73.2,29.76,West,272,0.0,0.0,73,0.00,CLR,,0.00,WeatherDisplay:10.37,2013-07-24 13:12:00,
2013-07-24 09:17:00,83.2,73.6,29.76,North,359,1.1,1.1,73,0.00,CLR,,0.00,WeatherDisplay:10.37,2013-07-24 13:17:00,
2013-07-24 09:22:00,83.3,73.3,29.76,SSW,203,2.3,2.3,72,0.00,CLR,,0.00,WeatherDisplay:10.37,2013-07-24 13:22:00,
2013-07-24 09:27:00,83.5,73.1,29.76,SSW,210,1.1,0.0,71,0.00,CLR,,0.00,WeatherDisplay:10.37,2013-07-24 13:27:00,
2013-07-24 09:32:00,84.3,73.9,29.76,SW,235,0.0,0.0,71,0.00,CLR,,0.00,WeatherDisplay:10.37,2013-07-24 13:32:00,
2013-07-24 09:37:00,84.4,73.1,29.76,NNE,13,0.0,0.0,69,0.00,CLR,,0.00,WeatherDisplay:10.37,2013-07-24 13:37:00,
2013-07-24 09:42:00,84.9,73.6,29.76,WNW,285,1.1,1.1,69,0.00,CLR,,0.00,WeatherDisplay:10.37,2013-07-24 13:42:00,
2013-07-24 09:47:00,84.8,73.5,29.75,SW,225,0.0,0.0,69,0.00,CLR,,0.00,WeatherDisplay:10.37,2013-07-24 13:47:00,
2013-07-24 09:52:00,85.1,73.8,29.76,West,278,0.0,0.0,69,0.00,CLR,,0.00,WeatherDisplay:10.37,2013-07-24 13:52:00,
2013-07-24 09:57:00,85.5,72.8,29.75,West,259,3.5,3.5,66,0.00,CLR,,0.00,WeatherDisplay:10.37,2013-07-24 13:57:00,
2013-07-24 10:02:00,85.7,73.9,29.75,WNW,294,1.1,1.1,68,0.00,CLR,,0.00,WeatherDisplay:10.37,2013-07-24 14:02:00,
2013-07-24 10:07:00,86.2,74.0,29.76,WNW,302,0.0,0.0,67,0.00,CLR,,0.00,WeatherDisplay:10.37,2013-07-24 14:07:00,
2013-07-24 10:12:00,87.0,75.2,29.75,WSW,245,1.1,1.1,68,0.00,CLR,,0.00,WeatherDisplay:10.37,2013-07-24 14:12:00,
2013-07-24 10:17:00,87.5,74.7,29.75,WSW,249,0.0,0.0,66,0.00,CLR,,0.00,WeatherDisplay:10.37,2013-07-24 14:17:00,
2013-07-24 10:22:00,88.1,74.4,29.75,WSW,245,0.0,0.0,64,0.00,CLR,,0.00,WeatherDisplay:10.37,2013-07-24 14:22:00,
2013-07-24 10:27:00,88.2,74.9,29.76,SW,222,0.0,0.0,65,0.00,CLR,,0.00,WeatherDisplay:10.37,2013-07-24 14:27:00,
2013-07-24 10:32:00,88.3,74.6,29.76,NNE,23,0.0,0.0,64,0.00,CLR,,0.00,WeatherDisplay:10.37,2013-07-24 14:32:00,
2013-07-24 10:37:00,88.0,72.9,29.76,West,260,3.5,3.5,61,0.00,CLR,,0.00,WeatherDisplay:10.37,2013-07-24 14:37:00,
2013-07-24 10:42:00,87.8,73.6,29.76,West,278,0.0,0.0,63,0.00,CLR,,0.00,WeatherDisplay:10.37,2013-07-24 14:42:00,
2013-07-24 10:47:00,88.0,74.3,29.75,NNE,23,0.0,0.0,64,0.00,CLR,,0.00,WeatherDisplay:10.37,2013-07-24 14:47:00,
2013-07-24 10:52:00,87.7,74.0,29.75,NW,318,3.5,3.5,64,0.00,CLR,,0.00,WeatherDisplay:10.37,2013-07-24 14:52:00,
2013-07-24 10:57:00,88.0,74.3,29.75,NW,326,1.1,0.0,64,0.00,CLR,,0.00,WeatherDisplay:10.37,2013-07-24 14:57:00,
2013-07-24 11:02:00,88.1,73.0,29.75,WNW,299,4.0,4.0,61,0.00,CLR,,0.00,WeatherDisplay:10.37,2013-07-24 15:02:00,
2013-07-24 11:07:00,88.3,74.1,29.75,NW,325,2.3,0.0,63,0.00,CLR,,0.00,WeatherDisplay:10.37,2013-07-24 15:07:00,
2013-07-24 11:12:00,88.3,72.2,29.76,West,271,0.0,0.0,59,0.00,CLR,,0.00,WeatherDisplay:10.37,2013-07-24 15:12:00,
2013-07-24 11:17:00,88.2,72.1,29.75,West,259,3.5,3.5,59,0.00,CLR,,0.00,WeatherDisplay:10.37,2013-07-24 15:17:00,
2013-07-24 11:22:00,88.4,72.2,29.75,NE,44,2.3,2.3,59,0.00,CLR,,0.00,WeatherDisplay:10.37,2013-07-24 15:22:00,
2013-07-24 11:27:00,88.8,73.1,29.75,NW,311,2.3,2.3,60,0.00,CLR,,0.00,WeatherDisplay:10.37,2013-07-24 15:27:00,
2013-07-24 11:32:00,89.0,73.3,29.76,WSW,240,0.0,0.0,60,0.00,CLR,,0.00,WeatherDisplay:10.37,2013-07-24 15:32:00,
2013-07-24 11:37:00,89.3,72.6,29.76,North,4,0.0,0.0,58,0.00,CLR,,0.00,WeatherDisplay:10.37,2013-07-24 15:37:00,
2013-07-24 11:42:00,89.6,73.4,29.76,WNW,291,3.0,3.0,59,0.00,CLR,,0.00,WeatherDisplay:10.37,2013-07-24 15:42:00,
2013-07-24 11:47:00,90.2,72.4,29.76,WSW,256,3.5,3.5,56,0.00,CLR,,0.00,WeatherDisplay:10.37,2013-07-24 15:47:00,
2013-07-24 11:52:00,90.3,73.0,29.76,ENE,70,0.0,0.0,57,0.00,CLR,,0.00,WeatherDisplay:10.37,2013-07-24 15:52:00,
2013-07-24 11:57:00,90.8,73.5,29.76,WSW,238,0.0,0.0,57,0.00,CLR,,0.00,WeatherDisplay:10.37,2013-07-24 15:57:00,
2013-07-24 12:02:00,91.1,72.1,29.76,North,354,0.0,0.0,54,0.00,CLR,,0.00,WeatherDisplay:10.37,2013-07-24 16:02:00,
2013-07-24 12:07:00,91.2,72.8,29.76,WNW,290,1.1,1.1,55,0.00,CLR,,0.00,WeatherDisplay:10.37,2013-07-24 16:07:00,
2013-07-24 12:12:00,91.3,72.3,29.76,West,262,3.5,3.5,54,0.00,CLR,,0.00,WeatherDisplay:10.37,2013-07-24 16:12:00,
2013-07-24 12:17:00,91.3,72.9,29.76,WSW,245,0.0,0.0,55,0.00,CLR,,0.00,WeatherDisplay:10.37,2013-07-24 16:17:00,
2013-07-24 12:22:00,91.4,73.5,29.76,SSW,210,1.1,0.0,56,0.00,CLR,,0.00,WeatherDisplay:10.37,2013-07-24 16:22:00,
2013-07-24 12:27:00,91.7,73.2,29.75,NE,40,1.1,0.0,55,0.00,CLR,,0.00,WeatherDisplay:10.37,2013-07-24 16:27:00,
2013-07-24 12:32:00,91.3,71.2,29.75,West,272,2.3,2.3,52,0.00,CLR,,0.00,WeatherDisplay:10.37,2013-07-24 16:32:00,
2013-07-24 12:37:00,91.3,72.3,29.75,ESE,108,2.3,2.3,54,0.00,CLR,,0.00,WeatherDisplay:10.37,2013-07-24 16:37:00,
2013-07-24 12:42:00,91.6,73.7,29.75,West,259,0.0,0.0,56,0.00,CLR,,0.00,WeatherDisplay:10.37,2013-07-24 16:42:00,
2013-07-24 12:47:00,92.3,73.2,29.74,North,354,0.0,0.0,54,0.00,CLR,,0.00,WeatherDisplay:10.37,2013-07-24 16:47:00,
2013-07-24 12:52:00,91.9,72.9,29.75,WNW,293,1.1,1.1,54,0.00,CLR,,0.00,WeatherDisplay:10.37,2013-07-24 16:52:00,
2013-07-24 12:57:00,90.9,72.5,29.74,NNE,30,0.0,0.0,55,0.00,CLR,,0.00,WeatherDisplay:10.37,2013-07-24 16:57:00,
2013-07-24 13:02:00,90.8,72.9,29.74,WSW,245,1.1,1.1,56,0.00,CLR,,0.00,WeatherDisplay:10.37,2013-07-24 17:02:00,
2013-07-24 13:07:00,91.5,73.1,29.74,WSW,243,2.0,2.0,55,0.00,CLR,,0.00,WeatherDisplay:10.37,2013-07-24 17:07:00,
2013-07-24 13:12:00,92.0,74.6,29.74,West,281,0.0,0.0,57,0.00,CLR,,0.00,WeatherDisplay:10.37,2013-07-24 17:12:00,
2013-07-24 13:17:00,91.0,72.6,29.74,NW,304,3.5,3.5,55,0.00,CLR,,0.00,WeatherDisplay:10.37,2013-07-24 17:17:00,
2013-07-24 13:22:00,90.0,72.2,29.74,North,4,0.0,0.0,56,0.00,CLR,,0.00,WeatherDisplay:10.37,2013-07-24 17:22:00,
2013-07-24 13:27:00,89.6,73.4,29.74,West,274,2.3,0.0,59,0.00,CLR,,0.00,WeatherDisplay:10.37,2013-07-24 17:27:00,
2013-07-24 13:32:00,91.0,73.7,29.74,WSW,245,1.1,0.0,57,0.00,CLR,,0.00,WeatherDisplay:10.37,2013-07-24 17:32:00,
2013-07-24 13:37:00,91.9,71.8,29.74,SSW,197,1.1,1.1,52,0.00,CLR,,0.00,WeatherDisplay:10.37,2013-07-24 17:37:00,
2013-07-24 13:42:00,92.1,73.6,29.74,West,260,0.0,0.0,55,0.00,CLR,,0.00,WeatherDisplay:10.37,2013-07-24 17:42:00,
2013-07-24 13:47:00,92.3,73.2,29.74,North,350,1.1,0.0,54,0.00,CLR,,0.00,WeatherDisplay:10.37,2013-07-24 17:47:00,
2013-07-24 13:52:00,92.0,72.4,29.74,North,5,1.1,1.1,53,0.00,CLR,,0.00,WeatherDisplay:10.37,2013-07-24 17:52:00,
2013-07-24 13:57:00,91.4,73.0,29.74,North,4,0.0,0.0,55,0.00,CLR,,0.00,WeatherDisplay:10.37,2013-07-24 17:57:00,
2013-07-24 14:02:00,90.6,72.8,29.74,NW,326,3.5,0.0,56,0.00,CLR,,0.00,WeatherDisplay:10.37,2013-07-24 18:02:00,
2013-07-24 14:07:00,90.5,72.7,29.74,West,280,0.0,0.0,56,0.00,CLR,,0.00,WeatherDisplay:10.37,2013-07-24 18:07:00,
2013-07-24 14:12:00,91.0,71.5,29.74,WSW,243,0.0,0.0,53,0.00,CLR,,0.00,WeatherDisplay:10.37,2013-07-24 18:12:00,
2013-07-24 14:17:00,91.3,71.2,29.73,West,266,1.1,0.0,52,0.00,CLR,,0.00,WeatherDisplay:10.37,2013-07-24 18:17:00,
2013-07-24 14:22:00,91.2,70.5,29.73,NNE,16,0.0,0.0,51,0.00,CLR,,0.00,WeatherDisplay:10.37,2013-07-24 18:22:00,
2013-07-24 14:27:00,91.4,71.9,29.73,NNE,32,0.0,0.0,53,0.00,CLR,,0.00,WeatherDisplay:10.37,2013-07-24 18:27:00,
2013-07-24 14:32:00,91.0,72.6,29.73,NNW,337,0.0,0.0,55,0.00,CLR,,0.00,WeatherDisplay:10.37,2013-07-24 18:32:00,
2013-07-24 14:37:00,91.5,73.6,29.73,NNW,343,0.0,0.0,56,0.00,CLR,,0.00,WeatherDisplay:10.37,2013-07-24 18:37:00,
2013-07-24 14:42:00,92.5,73.4,29.73,NNE,20,1.1,1.1,54,0.00,CLR,,0.00,WeatherDisplay:10.37,2013-07-24 18:42:00,
2013-07-24 14:47:00,92.3,72.1,29.72,SW,232,3.5,3.5,52,0.00,CLR,,0.00,WeatherDisplay:10.37,2013-07-24 18:47:00,
2013-07-24 14:52:00,92.2,73.2,29.72,NNW,345,0.0,0.3,54,0.00,CLR,,0.00,WeatherDisplay:10.37,2013-07-24 18:52:00,
2013-07-24 14:57:00,92.5,71.7,29.72,West,264,2.3,2.3,51,0.00,CLR,,0.00,WeatherDisplay:10.37,2013-07-24 18:57:00,
2013-07-24 15:02:00,92.2,72.6,29.72,WNW,288,1.1,0.0,53,0.00,CLR,,0.00,WeatherDisplay:10.37,2013-07-24 19:02:00,
2013-07-24 15:07:00,92.6,73.5,29.72,North,8,2.3,2.3,54,0.00,CLR,,0.00,WeatherDisplay:10.37,2013-07-24 19:07:00,
2013-07-24 15:12:00,92.4,73.3,29.72,NW,309,0.0,0.0,54,0.00,CLR,,0.00,WeatherDisplay:10.37,2013-07-24 19:12:00,
2013-07-24 15:17:00,92.2,72.6,29.72,NNE,23,1.1,0.0,53,0.00,CLR,,0.00,WeatherDisplay:10.37,2013-07-24 19:17:00,
2013-07-24 15:22:00,92.4,73.9,29.72,West,277,2.3,0.0,55,0.00,CLR,,0.00,WeatherDisplay:10.37,2013-07-24 19:22:00,
2013-07-24 15:27:00,92.4,73.3,29.71,WSW,242,1.1,0.0,54,0.00,CLR,,0.00,WeatherDisplay:10.37,2013-07-24 19:27:00,
2013-07-24 15:32:00,93.3,72.5,29.71,SSW,198,0.0,0.0,51,0.00,CLR,,0.00,WeatherDisplay:10.37,2013-07-24 19:32:00,
2013-07-24 15:37:00,93.1,71.7,29.71,SSW,198,0.0,0.0,50,0.00,CLR,,0.00,WeatherDisplay:10.37,2013-07-24 19:37:00,
2013-07-24 15:42:00,92.7,72.5,29.71,SW,217,0.0,0.0,52,0.00,CLR,,0.00,WeatherDisplay:10.37,2013-07-24 19:42:00,
2013-07-24 15:47:00,93.1,73.4,29.71,West,276,0.0,0.0,53,0.00,CLR,,0.00,WeatherDisplay:10.37,2013-07-24 19:47:00,
2013-07-24 15:52:00,92.5,72.9,29.71,North,4,0.0,0.0,53,0.00,CLR,,0.00,WeatherDisplay:10.37,2013-07-24 19:52:00,
2013-07-24 15:58:00,92.1,73.6,29.70,North,4,0.0,0.0,55,0.00,CLR,,0.00,WeatherDisplay:10.37,2013-07-24 19:58:00,
2013-07-24 16:03:00,92.2,73.2,29.71,West,278,1.1,1.1,54,0.00,CLR,,0.00,WeatherDisplay:10.37,2013-07-24 20:03:00,
2013-07-24 16:08:00,91.6,74.7,29.71,West,264,1.1,0.0,58,0.00,CLR,,0.00,WeatherDisplay:10.37,2013-07-24 20:08:00,
2013-07-24 16:13:00,90.9,72.5,29.71,SW,225,0.0,0.0,55,0.00,CLR,,0.00,WeatherDisplay:10.37,2013-07-24 20:13:00,
2013-07-24 16:18:00,90.8,75.0,29.71,WNW,289,0.0,0.0,60,0.00,CLR,,0.00,WeatherDisplay:10.37,2013-07-24 20:18:00,
2013-07-24 16:23:00,90.9,74.1,29.71,West,276,1.1,1.1,58,0.00,CLR,,0.00,WeatherDisplay:10.37,2013-07-24 20:23:00,
2013-07-24 16:28:00,90.6,73.3,29.71,West,278,1.1,1.1,57,0.00,CLR,,0.00,WeatherDisplay:10.37,2013-07-24 20:28:00,
2013-07-24 16:33:00,90.2,74.4,29.71,West,278,0.0,0.0,60,0.00,CLR,,0.00,WeatherDisplay:10.37,2013-07-24 20:33:00,
2013-07-24 16:38:00,89.7,75.4,29.71,WNW,287,0.0,0.0,63,0.00,CLR,,0.00,WeatherDisplay:10.37,2013-07-24 20:38:00,
2013-07-24 16:43:00,89.1,74.9,29.71,WNW,283,0.0,0.0,63,0.00,CLR,,0.00,WeatherDisplay:10.37,2013-07-24 20:43:00,
2013-07-24 16:48:00,89.9,75.1,29.71,West,278,0.0,0.0,62,0.00,CLR,,0.00,WeatherDisplay:10.37,2013-07-24 20:48:00,
2013-07-24 16:53:00,90.7,73.4,29.71,West,277,1.1,1.1,57,0.00,CLR,,0.00,WeatherDisplay:10.37,2013-07-24 20:53:00,
2013-07-24 16:58:00,91.3,73.4,29.71,West,281,2.3,2.3,56,0.00,CLR,,0.00,WeatherDisplay:10.37,2013-07-24 20:58:00,
2013-07-24 17:03:00,91.6,72.6,29.71,SW,225,1.1,1.1,54,0.00,CLR,,0.00,WeatherDisplay:10.37,2013-07-24 21:03:00,
2013-07-24 17:08:00,92.2,75.3,29.71,ENE,65,0.0,0.0,58,0.00,CLR,,0.00,WeatherDisplay:10.37,2013-07-24 21:08:00,
2013-07-24 17:13:00,92.3,74.9,29.71,WSW,256,1.1,0.0,57,0.00,CLR,,0.00,WeatherDisplay:10.37,2013-07-24 21:13:00,
2013-07-24 17:18:00,91.2,75.4,29.71,WNW,297,0.0,0.0,60,0.00,CLR,,0.00,WeatherDisplay:10.37,2013-07-24 21:18:00,
2013-07-24 17:23:00,90.3,74.5,29.71,WNW,291,0.0,0.0,60,0.00,CLR,,0.00,WeatherDisplay:10.37,2013-07-24 21:23:00,
2013-07-24 17:28:00,89.7,75.4,29.71,WNW,291,0.0,0.0,63,0.00,CLR,,0.00,WeatherDisplay:10.37,2013-07-24 21:28:00,
2013-07-24 17:33:00,90.0,75.7,29.71,WNW,289,0.0,0.0,63,0.00,CLR,,0.00,WeatherDisplay:10.37,2013-07-24 21:33:00,
2013-07-24 17:38:00,90.9,74.1,29.71,WNW,293,0.0,0.0,58,0.00,CLR,,0.00,WeatherDisplay:10.37,2013-07-24 21:38:00,
2013-07-24 17:43:00,91.0,74.2,29.71,WSW,239,2.3,2.3,58,0.00,CLR,,0.00,WeatherDisplay:10.37,2013-07-24 21:43:00,
2013-07-24 17:48:00,90.1,73.3,29.71,West,266,0.0,0.0,58,0.00,CLR,,0.00,WeatherDisplay:10.37,2013-07-24 21:48:00,
2013-07-24 17:53:00,89.0,73.8,29.71,WSW,257,0.0,0.0,61,0.00,CLR,,0.00,WeatherDisplay:10.37,2013-07-24 21:53:00,
2013-07-24 17:58:00,88.1,73.4,29.71,WSW,253,2.3,2.3,62,0.00,CLR,,0.00,WeatherDisplay:10.37,2013-07-24 21:58:00,
2013-07-24 18:03:00,87.3,74.1,29.71,West,277,0.0,0.0,65,0.00,CLR,,0.00,WeatherDisplay:10.37,2013-07-24 22:03:00,
2013-07-24 18:08:00,86.7,75.3,29.72,SE,125,0.0,0.0,69,0.00,CLR,,0.00,WeatherDisplay:10.37,2013-07-24 22:08:00,
2013-07-24 18:13:00,85.6,74.3,29.71,West,281,4.6,4.6,69,0.00,CLR,,0.00,WeatherDisplay:10.37,2013-07-24 22:13:00,
2013-07-24 18:18:00,84.6,74.2,29.71,ESE,102,1.1,1.1,71,0.00,CLR,,0.00,WeatherDisplay:10.37,2013-07-24 22:18:00,
2013-07-24 18:23:00,83.6,73.6,29.72,ESE,114,1.1,1.1,72,0.00,CLR,,0.00,WeatherDisplay:10.37,2013-07-24 22:23:00,
2013-07-24 18:28:00,82.4,72.5,29.72,ESE,117,2.3,2.3,72,0.00,CLR,,0.00,WeatherDisplay:10.37,2013-07-24 22:28:00,
2013-07-24 18:33:00,81.9,72.4,29.72,South,174,0.0,0.0,73,0.00,CLR,,0.00,WeatherDisplay:10.37,2013-07-24 22:33:00,
2013-07-24 18:38:00,81.4,72.3,29.72,WNW,286,2.3,2.3,74,0.00,CLR,,0.00,WeatherDisplay:10.37,2013-07-24 22:38:00,
2013-07-24 18:43:00,79.9,73.2,29.72,West,274,0.0,0.0,80,0.01,RA,,0.02,WeatherDisplay:10.37,2013-07-24 22:43:00,
2013-07-24 18:48:00,78.9,73.3,29.72,West,274,0.0,0.0,83,0.02,RA,,0.02,WeatherDisplay:10.37,2013-07-24 22:48:00,
2013-07-24 18:53:00,78.1,73.6,29.72,West,274,0.0,0.0,86,0.03,RA,,0.03,WeatherDisplay:10.37,2013-07-24 22:53:00,
2013-07-24 18:58:00,77.6,73.8,29.72,SW,235,0.0,0.0,88,0.03,RA,,0.03,WeatherDisplay:10.37,2013-07-24 22:58:00,
2013-07-24 19:03:00,77.4,74.2,29.72,SW,235,0.0,0.0,90,0.03,CLR,,0.03,WeatherDisplay:10.37,2013-07-24 23:03:00,
2013-07-24 19:08:00,77.3,74.5,29.72,SSE,148,0.0,0.0,91,0.03,CLR,,0.03,WeatherDisplay:10.37,2013-07-24 23:08:00,
2013-07-24 19:13:00,76.7,72.5,29.72,SE,143,0.0,0.0,87,0.03,CLR,,0.03,WeatherDisplay:10.37,2013-07-24 23:13:00,
2013-07-24 19:18:00,76.1,71.9,29.72,SE,142,0.0,0.0,87,0.03,CLR,,0.03,WeatherDisplay:10.37,2013-07-24 23:18:00,
2013-07-24 19:23:00,75.7,71.9,29.72,SE,142,0.0,0.0,88,0.03,CLR,,0.03,WeatherDisplay:10.37,2013-07-24 23:23:00,
2013-07-24 19:28:00,75.4,71.9,29.72,SE,144,0.0,0.0,89,0.03,CLR,,0.03,WeatherDisplay:10.37,2013-07-24 23:28:00,
2013-07-24 19:33:00,75.2,72.4,29.73,WSW,249,0.0,0.0,91,0.03,CLR,,0.03,WeatherDisplay:10.37,2013-07-24 23:33:00,
2013-07-24 19:38:00,75.1,72.6,29.73,WSW,249,0.0,0.0,92,0.03,CLR,,0.03,WeatherDisplay:10.37,2013-07-24 23:38:00,
2013-07-24 19:43:00,75.3,72.8,29.73,WSW,249,0.0,0.0,92,0.02,CLR,,0.03,WeatherDisplay:10.37,2013-07-24 23:43:00,
2013-07-24 19:48:00,75.4,73.2,29.73,WSW,249,0.0,0.0,93,0.01,CLR,,0.03,WeatherDisplay:10.37,2013-07-24 23:48:00,
2013-07-24 19:53:00,75.5,73.3,29.74,WSW,249,0.0,0.0,93,0.00,CLR,,0.03,WeatherDisplay:10.37,2013-07-24 23:53:00,
2013-07-24 19:58:00,75.5,73.0,29.74,WSW,249,0.0,0.0,92,0.00,CLR,,0.03,WeatherDisplay:10.37,2013-07-24 23:58:00,
2013-07-24 20:03:00,75.6,73.4,29.74,WSW,249,0.0,0.0,93,0.00,CLR,,0.03,WeatherDisplay:10.37,2013-07-25 00:03:00,
2013-07-24 20:08:00,75.7,73.5,29.74,WSW,249,0.0,0.0,93,0.00,CLR,,0.03,WeatherDisplay:10.37,2013-07-25 00:08:00,
2013-07-24 20:13:00,75.9,73.7,29.75,WSW,249,0.0,0.0,93,0.00,CLR,,0.03,WeatherDisplay:10.37,2013-07-25 00:13:00,
2013-07-24 20:18:00,75.9,73.7,29.75,WSW,249,0.0,0.0,93,0.00,CLR,,0.03,WeatherDisplay:10.37,2013-07-25 00:18:00,
2013-07-24 20:23:00,75.8,73.6,29.75,WSW,249,0.0,0.0,93,0.00,CLR,,0.03,WeatherDisplay:10.37,2013-07-25 00:23:00,
2013-07-24 20:28:00,75.7,73.5,29.75,WSW,249,0.0,0.0,93,0.00,CLR,,0.03,WeatherDisplay:10.37,2013-07-25 00:28:00,
2013-07-24 20:33:00,75.5,73.0,29.75,WSW,249,0.0,0.0,92,0.00,CLR,,0.03,WeatherDisplay:10.37,2013-07-25 00:33:00,
2013-07-24 20:38:00,75.2,73.0,29.75,WSW,249,0.0,0.0,93,0.00,CLR,,0.03,WeatherDisplay:10.37,2013-07-25 00:38:00,
2013-07-24 20:43:00,75.1,72.9,29.76,East,84,1.0,1.0,93,0.00,CLR,,0.03,WeatherDisplay:10.37,2013-07-25 00:43:00,
2013-07-24 20:48:00,75.2,73.4,29.76,NW,311,0.0,0.0,94,0.00,CLR,,0.03,WeatherDisplay:10.37,2013-07-25 00:48:00,
2013-07-24 20:53:00,75.1,72.9,29.76,ESE,122,1.1,0.0,93,0.00,CLR,,0.03,WeatherDisplay:10.37,2013-07-25 00:53:00,
2013-07-24 20:58:00,75.3,73.5,29.77,ESE,122,0.0,0.0,94,0.00,CLR,,0.03,WeatherDisplay:10.37,2013-07-25 00:58:00,
2013-07-24 21:03:00,75.4,73.6,29.76,ESE,122,0.0,0.0,94,0.00,CLR,,0.03,WeatherDisplay:10.37,2013-07-25 01:03:00,
2013-07-24 21:08:00,75.4,73.2,29.77,ESE,122,0.0,0.0,93,0.00,CLR,,0.03,WeatherDisplay:10.37,2013-07-25 01:08:00,
2013-07-24 21:13:00,75.4,73.2,29.77,ESE,122,0.0,0.0,93,0.00,CLR,,0.03,WeatherDisplay:10.37,2013-07-25 01:13:00,
2013-07-24 21:18:00,75.1,72.6,29.77,ESE,122,0.0,0.0,92,0.00,CLR,,0.03,WeatherDisplay:10.37,2013-07-25 01:18:00,
2013-07-24 21:23:00,75.0,72.2,29.76,SE,142,0.0,0.0,91,0.00,CLR,,0.03,WeatherDisplay:10.37,2013-07-25 01:23:00,
2013-07-24 21:28:00,75.1,72.3,29.77,SE,145,0.0,0.0,91,0.00,CLR,,0.03,WeatherDisplay:10.37,2013-07-25 01:28:00,
2013-07-24 21:33:00,75.1,72.3,29.77,SE,145,0.0,0.0,91,0.00,CLR,,0.03,WeatherDisplay:10.37,2013-07-25 01:33:00,
2013-07-24 21:38:00,75.0,72.2,29.77,SE,143,0.0,0.0,91,0.00,CLR,,0.03,WeatherDisplay:10.37,2013-07-25 01:38:00,
2013-07-24 21:43:00,74.9,72.1,29.78,SE,143,0.0,0.0,91,0.00,CLR,,0.03,WeatherDisplay:10.37,2013-07-25 01:43:00,
2013-07-24 21:48:00,74.8,72.0,29.77,SE,143,0.0,0.0,91,0.00,CLR,,0.03,WeatherDisplay:10.37,2013-07-25 01:48:00,
2013-07-24 21:53:00,74.6,71.8,29.78,SE,143,0.0,0.0,91,0.00,CLR,,0.03,WeatherDisplay:10.37,2013-07-25 01:53:00,
2013-07-24 21:58:00,74.5,72.0,29.78,SE,143,0.0,0.0,92,0.00,CLR,,0.03,WeatherDisplay:10.37,2013-07-25 01:58:00,
2013-07-24 22:03:00,74.4,71.6,29.78,SE,144,0.0,0.0,91,0.00,CLR,,0.03,WeatherDisplay:10.37,2013-07-25 02:03:00,
2013-07-24 22:08:00,74.4,71.9,29.79,SE,144,0.0,0.0,92,0.00,CLR,,0.03,WeatherDisplay:10.37,2013-07-25 02:08:00,
2013-07-24 22:13:00,74.2,71.7,29.79,SE,143,0.0,0.0,92,0.00,CLR,,0.03,WeatherDisplay:10.37,2013-07-25 02:13:00,
2013-07-24 22:18:00,74.1,71.6,29.79,SE,143,0.0,0.0,92,0.00,CLR,,0.03,WeatherDisplay:10.37,2013-07-25 02:18:00,
2013-07-24 22:23:00,74.0,71.5,29.79,SE,143,0.0,0.0,92,0.00,CLR,,0.03,WeatherDisplay:10.37,2013-07-25 02:23:00,
2013-07-24 22:28:00,74.0,71.8,29.79,SE,145,0.0,0.0,93,0.00,CLR,,0.03,WeatherDisplay:10.37,2013-07-25 02:28:00,
2013-07-24 22:33:00,74.0,71.8,29.80,SE,145,0.0,0.0,93,0.00,CLR,,0.03,WeatherDisplay:10.37,2013-07-25 02:33:00,
2013-07-24 22:38:00,74.0,71.8,29.80,SE,146,0.0,0.0,93,0.00,CLR,,0.03,WeatherDisplay:10.37,2013-07-25 02:38:00,
2013-07-24 22:43:00,74.0,72.2,29.80,ESE,113,0.0,0.0,94,0.00,CLR,,0.03,WeatherDisplay:10.37,2013-07-25 02:43:00,
2013-07-24 22:48:00,74.1,72.3,29.80,ESE,113,0.0,0.0,94,0.00,CLR,,0.03,WeatherDisplay:10.37,2013-07-25 02:48:00,
2013-07-24 22:53:00,74.1,72.3,29.80,ESE,113,0.0,0.0,94,0.00,CLR,,0.03,WeatherDisplay:10.37,2013-07-25 02:53:00,
2013-07-24 22:58:00,74.1,72.3,29.80,ESE,113,0.0,0.0,94,0.00,CLR,,0.03,WeatherDisplay:10.37,2013-07-25 02:58:00,
2013-07-24 23:03:00,74.2,72.4,29.80,ESE,113,0.0,0.0,94,0.00,CLR,,0.03,WeatherDisplay:10.37,2013-07-25 03:03:00,
2013-07-24 23:08:00,74.3,72.5,29.80,ESE,113,0.0,0.0,94,0.00,CLR,,0.03,WeatherDisplay:10.37,2013-07-25 03:08:00,
2013-07-24 23:13:00,74.3,72.5,29.80,ESE,113,0.0,0.0,94,0.00,CLR,,0.03,WeatherDisplay:10.37,2013-07-25 03:13:00,
2013-07-24 23:18:00,74.4,72.6,29.80,ESE,113,0.0,0.0,94,0.00,CLR,,0.03,WeatherDisplay:10.37,2013-07-25 03:18:00,
2013-07-24 23:23:00,74.4,72.6,29.80,ESE,113,0.0,0.0,94,0.00,CLR,,0.03,WeatherDisplay:10.37,2013-07-25 03:23:00,
2013-07-24 23:28:00,74.5,72.7,29.80,ESE,113,0.0,0.0,94,0.00,CLR,,0.03,WeatherDisplay:10.37,2013-07-25 03:28:00,
2013-07-24 23:33:00,74.6,72.8,29.80,ESE,113,0.0,0.0,94,0.00,CLR,,0.03,WeatherDisplay:10.37,2013-07-25 03:33:00,
2013-07-24 23:38:00,74.6,72.8,29.80,ESE,113,0.0,0.0,94,0.00,CLR,,0.03,WeatherDisplay:10.37,2013-07-25 03:38:00,
2013-07-24 23:43:00,74.5,72.7,29.81,ESE,113,0.0,0.0,94,0.00,CLR,,0.03,WeatherDisplay:10.37,2013-07-25 03:43:00,
2013-07-24 23:48:00,74.4,72.6,29.81,ESE,113,0.0,0.0,94,0.00,CLR,,0.03,WeatherDisplay:10.37,2013-07-25 03:48:00,
2013-07-24 23:53:00,74.4,72.6,29.81,ESE,113,0.0,0.0,94,0.00,CLR,,0.03,WeatherDisplay:10.37,2013-07-25 03:53:00,
2013-07-24 23:58:00,74.5,72.3,29.81,ESE,113,0.0,0.0,93,0.00,CLR,,0.03,WeatherDisplay:10.37,2013-07-25 03:58:00,